Torna al catalogo

STARLINK-4278

AttivoComunicazioniVLEO
NORAD 53182·PAYLOAD·🇺🇸 United States

Lanciato Jul 17, 2022 da Cape Canaveral Space Force Station

Loading…

Prossimi Passaggi (prossime 24 ore)

TLE

AggiornatoSource: CelesTrak SupGP

Epoca: Sep 14, 2026, 21:47 UTC

1 53182C 22083BC  26257.90812500 -.00028440  00000+0 -81351-3 0  2578
2 53182  53.1594 355.5559 0001178  81.4448  39.5593 15.35419835    10

Traccia STARLINK-4278 in tempo reale con AllMySat

Download on the App Store